Preview of NWS' New Version of Forecast
This preview is not operational and should not be used for support decisions.
Latest weather observations around

John C Tune Airport (KJWN)

Using English Units (Switch to International System of Units)
Date/ Time (CDT) Wind (mph) Vis. (mi) Weather Sky Cond. Temp (°F) Rel. Humidity Wind Chill (°F) Heat Index (°F) Pressure Precip. (in)
Air Dwpt 6 hour Altimeter (inHg) Sea level (inHg) 1 hr 3 hr 6 hr
Max Min
Sep 23 02:15 Calm 10 Clear   72 59     65%   71 30.04        
Sep 23 01:55 Calm 10 Clear   72 59     65%   71 30.04        
Sep 23 01:35 Calm 10 Clear   73 59     61%   73 30.04        
Sep 23 01:15 Calm 10 Clear   72 59     65%   71 30.04        
Sep 23 00:55 Calm 10 Clear   70 59     69%     30.04        
Sep 23 00:35 Calm 10 Clear   73 59     61%   73 30.04        
Sep 23 00:15 S 5 10 Clear   73 59     61%   73 30.04        
Sep 22 23:55 S 6 10 Clear   73 59     61%   73 30.05        
Sep 22 23:35 S 5 10 Clear   73 59     61%   73 30.05        
Sep 22 23:15 S 5 10 Clear   73 59     61%   73 30.05        
Sep 22 22:55 S 5 10 Clear   75 59     57%   75 30.05        
Sep 22 22:35 S 5 10 Clear   75 59     57%   75 30.05        
Sep 22 22:15 S 6 10 Clear   75 59     57%   75 30.05        
Sep 22 21:55 S 6 10 Clear   77 59     54%   77 30.06        
Sep 22 21:35 S 5 10 Clear   77 59     54%   77 30.05        
Sep 22 21:15 S 7 10 Clear   77 57     50%   77 30.05        
Sep 22 20:55 SSW 6 10 Clear   77 57     50%   77 30.05        
Sep 22 20:35 SSW 6 10 Clear   77 57     50%   77 30.04        
Sep 22 20:15 SSW 6 10 Clear   77 57     50%   77 30.04        
Sep 22 19:55 S 6 10 Clear   79 57     48%   79 30.03        
Sep 22 19:35 S 7 10 Clear   79 57     48%   79 30.03        
Sep 22 19:15 SSW 7 10 Clear   81 55     42%   81 30.03        
Sep 22 18:55 SSW 6 10 Clear CLR 81 55     42%   81 30.03        
Sep 22 18:35 SSW 7 10 Clear CLR 84 55     37%   83 30.03        
Sep 22 18:15 SSW 10 10 Mostly Clear FEW075 86 55     35%   85 30.03        
Sep 22 17:55 SSW 9 10 Partly Cloudy SCT075 88 55     33%   86 30.03        
Sep 22 17:35 SSW 10 10 Mostly Clear FEW075 88 55     33%   86 30.03        
Sep 22 17:15 SSW 9 10 Mostly Clear FEW075 86 54     33%   84 30.03        
Sep 22 16:55 SW 15 10 Partly Cloudy SCT075 88 55     33%   86 30.03        
Sep 22 16:35 SW 9 10 Partly Cloudy SCT075 90 54     29%   87 30.03        
Sep 22 16:15 SSW 15 10 Partly Cloudy SCT075 90 54     29%   87 30.03        
Sep 22 15:55 SW 13 10 Mostly Clear FEW075 90 54     29%   87 30.03        
Sep 22 15:35 SSW 9 10 Mostly Clear FEW075 90 54     29%   87 30.04        
Sep 22 15:15 6 10 Partly Cloudy SCT075 90 54     29%   87 30.04        
Sep 22 14:55 SSW 13 10 Mostly Clear FEW075 90 54     29%   87 30.05        
Sep 22 14:35 SSW 11 10 Partly Cloudy SCT075 90 54     29%   87 30.06        
Sep 22 14:15 SW 13 10 Partly Cloudy SCT070 90 54     29%   87 30.07        
Sep 22 13:55 SW 10 10 Mostly Clear FEW070 90 55     31%   88 30.08        
Sep 22 13:35 S 11 10 Mostly Clear FEW070 90 55     31%   88 30.08        
Sep 22 13:15 WSW 10 10 Partly Cloudy SCT070 90 55     31%   88 30.09        
Sep 22 12:55 S 14 10 Partly Cloudy SCT065 88 55     33%   86 30.1        
Sep 22 12:35 SSW 9 10 Clear CLR 88 55     33%   86 30.12        
Sep 22 12:15 SW 10 10 Clear CLR 88 55     33%   86 30.13        
Sep 22 11:55 WSW 13 10 Clear CLR 88 55     33%   86 30.14        
Sep 22 11:35 S 11 10 Mostly Clear FEW065 88 55     33%   86 30.14        
Sep 22 11:15 S 17 10 Mostly Clear FEW065 88 55     33%   86 30.14        
Sep 22 10:55 SSW 15 10 Clear CLR 86 55     35%   85 30.15        
Sep 22 10:35 SSW 10 10 Clear CLR 84 57     40%   83 30.16        
Sep 22 10:15 SSW 14 10 Clear CLR 84 57     40%   83 30.16        
Sep 22 09:55 SSW 13 10 Clear CLR 82 57     42%   82 30.17        
Sep 22 09:35 S 9 10 Clear CLR 81 57     45%   81 30.17        
Sep 22 09:15 SSW 7 10 Clear CLR 79 59     51%   79 30.16        
Sep 22 08:55 Calm 10 Clear CLR 73 61     65%   73 30.17        
Sep 22 08:35 Calm 10 Clear CLR 72 59     65%   71 30.16        
Sep 22 08:15 Calm 10 Clear CLR 70 59     69%     30.16        
Sep 22 07:55 Calm 10 Mostly Clear FEW065 68 59     73%     30.17        
Sep 22 07:35 Calm 10 Mostly Cloudy BKN065 64 59     83%     30.17        
Sep 22 07:15 Calm 10 Partly Cloudy SCT065 63 59     88%     30.17        
Sep 22 06:55 Calm 10 Mostly Cloudy BKN065 61 57     88%     30.17        
Sep 22 06:35 Calm 10 Clear   63 57     83%     30.17        
Sep 22 06:15 Calm 10 Clear   63 57     83%     30.16        
Sep 22 05:55 Calm 10 Clear   63 59     88%     30.16        
Sep 22 05:35 Calm 10 Clear   63 57     83%     30.15        
Sep 22 05:15 NNE 3 10 Clear   64 57     77%     30.15        
Sep 22 04:55 Calm 10 Clear   63 59     88%     30.15        
Sep 22 04:35 Calm 10 Clear   63 57     83%     30.14        
Sep 22 04:15 Calm 10 Clear   64 59     83%     30.14        
Sep 22 03:55 Calm 10 Clear   64 57     77%     30.14        
Sep 22 03:35 Calm 10 Clear   63 57     83%     30.14        
Sep 22 03:15 Calm 10 Clear   64 57     77%     30.14        
Sep 22 02:55 Calm 10 Clear   66 57     73%     30.14        
Sep 22 02:35 Calm 10 Clear   66 59     78%     30.14        
Sep 22 02:15 Calm 10 Clear   64 57     77%     30.14        
Sep 22 01:55 Calm 10 Clear   64 57     77%     30.14        
Sep 22 01:35 Calm 10 Clear   66 57     73%     30.14        
Sep 22 01:15 Calm 10 Clear   64 57     77%     30.15        
Sep 22 00:55 Calm 10 Clear   68 57     68%     30.14        
Sep 22 00:35 Calm 10 Clear   68 57     68%     30.14        
Sep 22 00:15 Calm 10 Clear   68 57     68%     30.15        
Sep 21 23:55 Calm 10 Clear   68 57     68%     30.15        
Sep 21 23:35 Calm 10 Clear   70 55     60%     30.15        
Sep 21 23:15 Calm 10 Clear   72 55     57%   71 30.15        
Sep 21 22:55 Calm 10 Clear   70 55     60%     30.16        
Sep 21 22:35 Calm 10 Clear   70 57     64%     30.15        
Sep 21 22:15 Calm 10 Clear   73 55     53%   73 30.15        
Sep 21 21:55 Calm 10 Clear   73 57     57%   73 30.15        
Sep 21 21:35 Calm 10 Clear   75 55     50%   75 30.15        
Sep 21 21:15 Calm 10 Clear   75 55     50%   75 30.15        
Sep 21 20:55 Calm 10 Clear   77 55     47%   77 30.15        
Sep 21 20:35 Calm 10 Clear   79 55     45%   78 30.15        
Sep 21 20:15 Calm 10 Clear   77 55     47%   77 30.15        
Sep 21 19:55 Calm 10 Clear   81 54     39%   80 30.14        
Sep 21 19:35 SE 3 10 Clear   82 52     35%   81 30.14        
Sep 21 19:15 Calm 10 Clear   82 52     35%   81 30.14        
Sep 21 18:55 SW 3 10 Clear CLR 84 52     33%   82 30.13        
Sep 21 18:35 SW 5 10 Clear CLR 84 52     33%   82 30.13        
Sep 21 18:15 SW 8 10 Clear CLR 86 52     31%   84 30.13        
Sep 21 17:55 SSW 7 10 Clear CLR 88 52     29%   85 30.13        
Sep 21 17:35 SSW 5 10 Clear CLR 90 52     28%   87 30.13        
Sep 21 17:15 6 10 Clear CLR 90 52     28%   87 30.13        
Sep 21 16:55 S 6 10 Clear CLR 90 50     26%   87 30.13        
Sep 21 16:35 SSW 3 10 Clear CLR 90 52     28%   87 30.13        
Sep 21 16:15 Calm 10 Clear CLR 90 52     28%   87 30.14        
Sep 21 15:55 3 10 Clear CLR 90 52     28%   87 30.14        
Sep 21 15:35 S 9 10 Clear CLR 91 50     24%   88 30.14        
Sep 21 15:15 3 10 Clear CLR 90 50     26%   87 30.15        
Sep 21 14:55 SE 7 10 Clear CLR 90 50     26%   87 30.16        
Sep 21 14:35 SW 11 10 Clear CLR 90 52     28%   87 30.16        
Sep 21 14:15 SSW 10 10 Clear CLR 90 52     28%   87 30.17        
Sep 21 13:55 S 10 10 Clear CLR 88 52     29%   85 30.18        
Sep 21 13:35 SE 9 10 Clear CLR 88 52     29%   85 30.19        
Sep 21 13:15 SSE 10 10 Clear CLR 88 54     31%   86 30.2        
Sep 21 12:55 SW 8 10 Clear CLR 88 54     31%   86 30.21        
Sep 21 12:35 S 8 10 Clear CLR 86 54     33%   84 30.23        
Sep 21 12:15 SW 7 10 Clear CLR 86 54     33%   84 30.24        
Sep 21 11:55 7 10 Clear CLR 86 52     31%   84 30.25        
Sep 21 11:35 SW 8 10 Clear CLR 86 52     31%   84 30.25        
Sep 21 11:15 S 9 10 Clear CLR 84 52     33%   82 30.26        
Sep 21 10:55 SSW 8 10 Clear CLR 84 54     35%   83 30.27        
Sep 21 10:35 SSW 11 7 Clear CLR 82 54     37%   81 30.27        
Sep 21 10:15 SSW 10 10 Clear CLR 82 54     37%   81 30.27        
Sep 21 09:55 SSW 8 10 Clear CLR 81 54     39%   80 30.28        
Sep 21 09:35 SSW 8 10 Clear CLR 81 54     39%   80 30.28        
Sep 21 09:15 6 10 Clear CLR 77 54     44%   76 30.28        
Sep 21 08:55 Calm 10 Clear CLR 75 57     54%   75 30.28        
Sep 21 08:35 ENE 3 10 Clear CLR 73 59     61%   73 30.28        
Sep 21 08:15 ENE 3 10 Clear CLR 72 59     65%   71 30.27        
Sep 21 07:55 ENE 5 10 Clear CLR 70 59     69%     30.27        
Sep 21 07:35 ENE 3 10 Clear CLR 68 59     73%     30.26        
Sep 21 07:15 ENE 7 10 Clear CLR 68 59     73%     30.25        
Sep 21 06:55 ENE 6 10 Clear CLR 66 59     78%     30.25        
Sep 21 06:35 ENE 5 10 Clear   66 59     78%     30.25        
Sep 21 06:15 ENE 5 10 Clear   66 61     83%     30.24        
Sep 21 05:55 ENE 5 10 Clear   66 61     83%     30.24        
Sep 21 05:35 ENE 5 10 Clear   68 61     78%     30.24        
Sep 21 05:15 ENE 6 10 Clear   68 61     78%     30.23        
Sep 21 04:55 E 5 10 Clear   68 61     78%     30.23        
Sep 21 04:35 ENE 5 10 Clear   68 61     78%     30.22        
Sep 21 04:15 Calm 10 Clear   72 57     60%   71 30.22        
Sep 21 03:55 ESE 3 10 Clear   72 57     60%   71 30.22        
Sep 21 03:35 Calm 10 Clear   72 57     60%   71 30.21        
Sep 21 03:15 Calm 10 Clear   72 59     65%   71 30.21        
Sep 21 02:55 Calm 10 Clear   73 59     61%   73 30.21        
Sep 21 02:35 Calm 10 Clear   72 61     69%   72 30.2        
Sep 21 02:15 Calm 10 Clear   72 61     69%   72 30.2        
Sep 21 01:55 SSE 5 10 Clear   73 61     65%   73 30.2        
Sep 21 01:35 Calm 10 Clear   72 63     73%   72 30.2        
Sep 21 01:15 Calm 10 Clear   72 63     73%   72 30.2        
Sep 21 00:55 Calm 10 Clear   70 63     78%     30.2        
Sep 21 00:35 Calm 10 Clear   70 63     78%     30.2        
Sep 21 00:15 Calm 10 Clear   73 63     69%   74 30.19        
Sep 20 23:55 Calm 10 Clear   72 63     73%   72 30.19        
Sep 20 23:35 Calm 10 Clear   73 63     69%   74 30.19        
Sep 20 23:15 Calm 10 Clear   73 63     69%   74 30.19        
Sep 20 22:55 Calm 10 Clear   73 63     69%   74 30.19        
Sep 20 22:35 NE 3 10 Clear   73 63     69%   74 30.19        
Sep 20 22:15 Calm 10 Clear   75 61     61%   75 30.19        
Sep 20 21:55 Calm 10 Clear   77 61     57%   77 30.19        
Sep 20 21:35 Calm 10 Clear   79 61     54%   79 30.19        
Sep 20 21:15 Calm 10 Clear   77 61     57%   77 30.19        
Sep 20 20:55 Calm 10 Clear   79 61     54%   79 30.18        
Sep 20 20:35 Calm 10 Clear   79 61     54%   79 30.18        
Sep 20 20:15 Calm 10 Clear   81 61     51%   81 30.17        
Sep 20 19:55 Calm 10 Clear   81 59     48%   81 30.16        
Sep 20 19:35 Calm 10 Clear   82 59     45%   82 30.16        
Sep 20 19:15 SSE 5 10 Clear   84 59     43%   84 30.16        
Sep 20 18:55 SSE 5 10 Clear   84 59     43%   84 30.15        
Sep 20 18:35 SE 5 10 Clear CLR 84 59     43%   84 30.14        
Sep 20 18:15 6 10 Clear CLR 86 59     40%   85 30.14        
Sep 20 17:55 SE 7 10 Clear CLR 86 59     40%   85 30.14        
Sep 20 17:35 ESE 3 10 Clear   88 59     38%   87 30.14        
Sep 20 17:15 SE 7 10 Clear   88 59     38%   87 30.14        
Sep 20 16:55 SSE 6 10 Clear   88 59     38%   87 30.14        
Sep 20 16:35 SW 9 10 Clear CLR 90 59     36%   89 30.14        
Sep 20 16:15 SE 5 10 Clear CLR 88 57     36%   87 30.15        
Sep 20 15:55 Calm 10 Mostly Clear FEW055 FEW075 88 57     36%   87 30.16        
Sep 20 15:35 5 10 Partly Cloudy SCT055 86 57     38%   85 30.16        
Sep 20 15:15 WSW 5 10 Mostly Clear FEW065 FEW080 FEW100 86 57     38%   85 30.16        
Sep 20 14:55 SSW 5 10 Mostly Cloudy SCT065 BKN075 BKN100 86 57     38%   85 30.17        
Sep 20 14:35 6 10 Mostly Cloudy SCT065 BKN075 86 57     38%   85 30.17        
Sep 20 14:15 7 10 Partly Cloudy SCT070 SCT080 88 57     36%   87 30.18        
Sep 20 13:55 SSE 10 10 Mostly Clear FEW070 86 55     35%   85 30.18        
Sep 20 13:35 SSW 11 10 Clear CLR 86 55     35%   85 30.19        
Sep 20 13:15 SW 6 10 Clear CLR 84 55     37%   83 30.19        
Sep 20 12:55 WSW 8 10 Clear CLR 86 55     35%   85 30.2        
Sep 20 12:35 S 13 10 Clear CLR 86 55     35%   85 30.2        
Sep 20 12:15 S 13 10 Clear CLR 84 54     35%   83 30.21        
Sep 20 11:55 S 11 10 Mostly Clear FEW070 84 54     35%   83 30.21        
Sep 20 11:35 S 11 10 Partly Cloudy SCT065 84 54     35%   83 30.22        
Sep 20 11:15 SSW 11 10 Partly Cloudy SCT060 84 54     35%   83 30.22        
Sep 20 10:55 S 13 9 Clear CLR 82 54     37%   81 30.22        
Sep 20 10:35 S 14 10 Clear CLR 81 52     37%   80 30.23        
Sep 20 10:15 S 9 10 Clear CLR 79 54     42%   78 30.23        
Sep 20 09:55 S 9 10 Clear CLR 79 54     42%   78 30.23        
Sep 20 09:35 S 10 10 Clear CLR 77 54     44%   76 30.24        
Sep 20 09:15 S 9 10 Clear CLR 77 54     44%   76 30.23        
Sep 20 08:55 S 10 10 Clear CLR 75 54     47%   75 30.23        
Sep 20 08:35 S 14 10 Mostly Clear FEW100 73 55     53%   73 30.22        
Sep 20 08:15 SSE 9 10 Mostly Cloudy SCT050 BKN100 72 55     57%   71 30.22        
Sep 20 07:55 S 8 10 Cloudy OVC050 72 55     57%   71 30.22        
Sep 20 07:35 SSE 8 10 Cloudy OVC050 72 55     57%   71 30.22        
Sep 20 07:15 S 7 10 Cloudy BKN050 OVC090 72 55     57%   71 30.21        
Sep 20 06:55 S 9 10 Cloudy OVC049 72 55     57%   71 30.2        
Sep 20 06:35 SSE 8 10 Clear   73 57     57%   73 30.2        
Sep 20 06:15 S 8 10 Clear   73 57     57%   73 30.19        
Sep 20 05:55 S 9 10 Clear   73 57     57%   73 30.19        
Sep 20 05:35 S 7 10 Clear   73 57     57%   73 30.18        
Sep 20 05:15 S 6 10 Clear   73 57     57%   73 30.18        
Sep 20 04:55 SSE 8 10 Clear   73 57     57%   73 30.17        
Sep 20 04:35 S 7 10 Clear   73 59     61%   73 30.16        
Sep 20 04:15 SSE 7 10 Clear   73 59     61%   73 30.16        
Sep 20 03:55 SSE 9 10 Clear   75 59     57%   75 30.15        
Sep 20 03:35 SSE 7 10 Clear   75 59     57%   75 30.15        
Sep 20 02:55 S 9 10 Clear   75 59     57%   75 30.14        
Sep 20 02:35 SSE 7 10 Clear   75 59     57%   75 30.13        
Sep 20 02:15 S 6 10 Clear   77 59     54%   77 30.13        
Sep 20 01:55 S 9 10 Clear   77 61     57%   77 30.13        
Sep 20 01:35 S 7 10 Clear   77 61     57%   77 30.13        
Sep 20 01:15 SSE 7 10 Clear   77 61     57%   77 30.13        
Sep 20 00:55 SE 5 10 Clear   77 63     61%   77 30.12        
Sep 20 00:35 SSE 6 10 Clear   77 63     61%   77 30.12        
Sep 20 00:15 SSE 5 10 Clear   77 63     61%   77 30.11        
Sep 19 23:55 Calm 10 Clear   77 64     65%   77 30.1        
May 15 00:35 Calm 10 Clear CLR 72 68     88%   73 29.93        
May 14 21:15 Calm 10 Clear CLR 81 68     66%   83 29.93        
May 14 20:35 Calm 10 Clear CLR 81 68     66%   83 29.92        
May 14 16:35 Calm 10 Mostly Cloudy BKN060 BKN070 91 63     38%   92 29.93        
May 14 16:15 SW 5 10 Mostly Clear FEW065 91 63     38%   92 29.94        
May 14 12:35 W 6 10 Clear CLR 88 64     46%   89 30.02        
May 14 12:15 NW 6 10 Clear CLR 88 66     49%   90 30.02        
May 14 11:35 NW 5 10 Clear CLR 86 66     52%   88 30.04        
May 14 10:55 WNW 8 10 Clear CLR 86 66     52%   88 30.04        
May 14 05:15 Calm 10 Clear CLR 64 63     94%     30.04        
May 14 01:15 Calm 10 Clear CLR 68 64     88%     30.01        
May 13 20:55 Calm 10 Clear CLR 77 66     69%   78 30.03        
May 13 16:15 6 10 Clear CLR 88 61     40%   88 30.01        
May 13 11:15 WNW 9 10 Clear CLR 86 63     46%   87 30.1        
May 13 10:15 W 8 10 Clear CLR 82 64     55%   84 30.11        
May 13 08:55 Calm 10 Clear CLR 77 64     65%   77 30.12        
May 13 08:15 Calm 10 Clear CLR 72 63     73%   72 30.12        
May 12 21:15 SSW 6 10 Clear CLR 72 63     73%   72 30.02        
Notice The following observation data may not be complete
May 12 20:15   10 Clear CLR          %              
Notice The following observation data may not be complete
May 12 18:55   10 Clear CLR          %              
May 12 15:55 W 7 10 Clear   88 61     40%   88 30.06        
May 12 13:15 6 10 Mostly Clear FEW050 86 61     43%   86 30.1        
May 12 09:35 W 8 10 Clear CLR 79 63     58%   79 30.15        
May 12 08:55 SW 7 10 Clear CLR 79 63     58%   79 30.14        
May 12 08:35 SSW 6 10 Clear   77 63     61%   77 30.13        
May 12 03:15 Calm 10 Clear CLR 66 61     83%     30.05        
May 12 01:15 Calm 10 Clear CLR 68 59     73%     30.04        
May 11 23:55 Calm 10 Clear CLR 72 59     65%   71 30.03        
May 11 23:35 Calm 10 Clear CLR 70 59     69%     30.03        
May 11 19:55 S 6 10 Clear CLR 79 61     54%   79 29.97        
May 11 19:35 SW 6 10 Clear CLR 79 61     54%   79 29.97        
May 11 13:15 SSW 11 10 Clear CLR 88 61     40%   88 30.05        
May 11 10:15 WSW 8 10 Clear CLR 82 61     48%   83 30.07